Tracking 30306 objects as of 22-Apr-2025
HD Live streaming from Space Station
objects crossing your sky now

POSAT

Track POSAT now!
10-day predictions


NORAD ID: 63488
Int'l Code: 2025-009DR
Perigee: 558.7 km
Apogee: 570.8 km
Inclination: 97.5 °
Period: 95.8 minutes
Semi major axis: 6935 km
RCS: Unknown
Launch date: January 14, 2025
Source: Portugal (POR)
Launch site: AIR FORCE WESTERN TEST RANGE (AFWTR)
Your satellite tracking list
Your tracking list is empty




NASA's NSSDC Master Catalog

Two Line Element Set (TLE):
1 63488U 25009DR  25111.92317615  .00014350  00000-0  10679-2 0  9997
2 63488  97.5199 192.2016 0008730 138.6343 221.5545 15.03024700  3186
Source of the keplerian elements: AFSPC